Regional Weather Roundup
Issued by NWS

Home | Current Version | Previous Version | Text Only | Print | Product List | Glossary On
Versions: 1 2 3 4 5 6 7 8 9 10 11 12 13 14 15 16 17 18 19 20 21 22 23 24 25 26 27 28 29 30 31 32 33 34 35 36 37 38 39 40 41 42 43 44 45 46 47 48 49 50
000
ASUS43 KTOP 232208
RWRKS

WEATHER ROUNDUP FOR KANSAS
NATIONAL WEATHER SERVICE GOODLAND KS
400 PM CST TUE JAN 23 2018

NOTE:  "FAIR" INDICATES FEW OR NO CLOUDS BELOW 12,000 FEET WITH NO
SIGNIFICANT WEATHER AND/OR OBSTRUCTIONS TO VISIBILITY.

KSZ001>006-013>018-027>032-041>047-232300-
NORTHWEST KANSAS

CITY           SKY/WX    TMP DP  RH WIND       PRES   REMARKS
GOODLAND       SUNNY     35  26  69 W9        30.24R
HAYS           SUNNY     43  26  51 NW12      30.24R
HILL CITY      SUNNY     41  29  62 NW13      30.25R
RUSSELL        SUNNY     43  28  55 NW14      30.23R
$$

KSZ061>065-074>080-084>089-232300-
SOUTHWEST KANSAS

CITY           SKY/WX    TMP DP  RH WIND       PRES   REMARKS
DODGE CITY     SUNNY     49  21  33 NW12      30.24R
ELKHART        SUNNY     50  18  27 N9        30.26S
GARDEN CITY    SUNNY     46  21  37 NW15      30.25R
GREAT BEND     SUNNY     46  24  42 NW16G22   30.24R
LIBERAL        SUNNY     50  15  24 N20G26    30.26S
PRATT          SUNNY     50  18  29 NW17      30.23S
$$

KSZ066>073-081>083-090>101-232300-
SOUTHEAST KANSAS

CITY           SKY/WX    TMP DP  RH WIND       PRES   REMARKS
CHANUTE        SUNNY     44  23  43 NW6       30.23R
COFFEYVILLE    SUNNY     48  20  32 NW10      30.25R
HUTCHINSON     SUNNY     48  22  35 NW13      30.22S
MEDICINE LODGE   N/A     53  18  25 NW12G22   30.22S
NEWTON         SUNNY     46  22  38 W10       30.22S
PARSONS        SUNNY     45  23  42 SW6       30.25R
WICHITA INTL   MOSUNNY   49  19  30 W9        30.22S
WICHITA JABRA  SUNNY     47  20  34 W13       30.22S
WICHITA MCCONL SUNNY     48  17  29 NW12      30.22S
WINFIELD       SUNNY     50  17  27 NW10      30.25S
$$

KSZ007>012-019>026-033>040-048>060-102>105-232300-
NORTHEAST KANSAS

CITY           SKY/WX    TMP DP  RH WIND       PRES   REMARKS
CONCORDIA      SUNNY     40  28  62 W12       30.20S WCI  33
EMPORIA        SUNNY     41  24  51 W8        30.21F
LAWRENCE       SUNNY     35  27  72 W8        30.22S
MANHATTAN      SUNNY     40  27  59 W7        30.22S
MARYSVILLE     SUNNY     36  27  69 NW9       30.21R
OLATHE IND     SUNNY     34  26  72 W8        30.22R
OLATHE EXE     SUNNY     33  26  75 W7        30.21R
SALINA         SUNNY     47  24  40 W9        30.22S
TOPEKA BILLARD SUNNY     35  27  72 W8        30.22S
TOPEKA FORBES  SUNNY     37  27  67 NW7       30.21S
$$



USA.gov is the U.S. government's official web portal to all federal, state and local government web resources and services.